Location: ???????
(55.7027°N, 37.3832°E)
Time: 21:34:57
(UTC+00:00)

USA 59 Rocket - Pass Details

Date: 14 April 2026
Orbit: 367 x 1664 km, 63.3° (Epoch: 16 May)

Event Time Altitude Azimuth Distance (km) Brightness Sun altitude
Rises 18:31:03 0° 306° (NW) 2,277 4.8 -14.8°
Reaches altitude 10° 18:32:56 10° 302° (WNW) 1,477 3.3 -15.0°
Maximum altitude 18:36:02 56° 223° (SW) 558 -0.2 -15.3°
Enters shadow 18:37:39 29° 158° (SSE) 936 0.5 -15.5°
